Вернуться в каталог

COSMOS 2499 DEB

АктивенPO
NORAD 60617·DEBRIS·🇷🇺 Russia

Запущен May 23, 2014 с Plesetsk Cosmodrome

Loading…

Ближайшие Пролёты (ближайшие 24 часа)

TLE

СвежийSource: Space-Track

Эпоха: Sep 12, 2026, 19:57 UTC

1 60617U 14028CD  26255.83172522  .00004586  00000-0  91119-2 0  9991
2 60617  82.1828 106.5669 0203031 302.8663  55.3065 13.27394043160637

Отслеживайте COSMOS 2499 DEB в реальном времени с AllMySat

Download on the App Store